Location: Sternwarte Radebeul
(51.1160°N, 13.6224°E)
Time: 21:42:48
(UTC+01:00)

ISS - Pass Details

Date: 25 January 2020
Orbit: 415 x 423 km, 51.6° (Epoch: 25 February)

Event Time Altitude Azimuth Distance (km) Brightness Sun altitude
Rises 17:33:03 0° 220° (SW) 2,371 1.2 -7.9°
Reaches altitude 10° 17:35:19 10° 208° (SSW) 1,509 -0.2 -8.3°
Maximum altitude 17:38:16 28° 148° (SSE) 833 -2.4 -8.7°
Enters shadow 17:40:56 12° 90° (E) 1,416 -1.7 -9.1°
